Wetbulb
49.01 47.80 47.00 46.23 45.94 46.57 45.97 46.16 45.94 47.26 48.07 48.71 50.40 51.58 53.52 54.06 54.93 57.65 58.83 57.59 55.29 55.41 55.86 55.92 54.66 51.87 52.60 53.60 54.93 53.97 53.10 53.94 49.75 50.89 51.87 51.57 52.63 51.48 50.97 51.78 51.67 52.53 51.83
46.42 47.17 46.28 46.28 47.06 46.77 46.56 46.95 47.48 47.42 48.58 49.89 51.05 52.55 52.89 53.86 54.78 55.59 56.30 56.78 56.13 54.95 54.41 52.41 51.41 53.04 53.78 54.82 54.70 52.88 52.39 52.06 49.35 47.13 49.51 49.15 49.69 51.09 50.29 50.23 50.87 50.68 50.90
46.66 45.37 45.12 44.93 46.26 46.38 47.50 48.24 48.23 49.63 49.97 49.92 49.89 51.73 50.66 54.04 54.19 55.69 54.26 55.44 55.15 53.24 52.76 53.30 53.54 53.89 53.81 50.71 50.23 51.69 50.11 48.30 47.83 46.91 46.80 49.38 49.55 49.69 49.84 51.50 51.25 50.74 51.44
45.76 45.81 46.43 46.53 46.87 48.29 49.05 49.00 49.23 50.19 49.92 50.58 49.56 48.94 49.23 51.22 52.07 51.82 52.16 53.48 52.86 53.29 53.28 54.26 53.51 50.67 50.03 50.40 49.26 47.56 47.48 47.54 47.77 46.86 46.74 47.68 48.73 50.41 50.06 48.36 47.14 49.22 48.92
46.43 46.14 46.50 46.74 47.00 47.29 47.53 48.16 48.96 49.48 49.87 50.02 49.88 50.04 50.60 50.77 49.88 50.36 52.16 52.80 53.56 53.03 53.46 50.61 49.48 48.79 47.84 48.11 46.92 47.02 47.45 48.91 47.85 45.45 46.20 47.35 47.33 46.58 46.59 48.34 47.46 48.39 49.80
44.95 45.58 46.87 47.76 48.01 47.81 47.45 48.49 49.20 49.53 49.69 50.24 49.76 49.47 50.04 51.28 46.00 46.43 47.88 52.82 52.25 51.85 48.10 47.73 47.22 46.42 46.29 46.91 47.23 47.42 47.74 48.42 47.63 47.23 46.27 45.58 46.60 46.78 47.70 47.23 46.94 46.06 44.25
44.10 44.98 45.61 46.34 46.68 46.18 45.95 46.47 46.53 49.39 49.20 47.80 47.25 47.91 47.77 48.33 45.08 45.55 46.57 50.22 47.03 46.29 45.65 45.84 46.24 48.30 48.96 49.08 47.93 47.50 47.59 46.32 46.60 48.79 47.75 47.42 47.26 47.60 48.42 47.43 47.50 46.46 45.91
43.90 43.99 45.31 45.64 44.93 45.93 45.59 44.67 44.91 45.51 45.00 44.99 45.44 46.82 46.73 46.13 44.88 44.78 45.97 46.79 46.91 48.31 48.49 48.26 48.18 49.82 49.80 48.03 47.18 49.29 48.55 49.69 50.58 50.14 50.50 49.91 49.60 50.01 49.40 48.86 48.71 48.48 47.99
42.82 43.27 44.16 44.88 44.35 44.38 43.55 43.98 44.69 44.82 44.77 45.79 47.03 47.76 46.66 47.03 44.05 44.54 48.09 50.67 49.95 49.78 50.00 50.02 48.68 49.34 41.76 41.39 46.64 47.71 49.15 49.28 48.62 47.18 46.53 45.54 44.00 44.34 46.12 47.66 46.66 45.23 43.97
42.85 43.78 44.74 45.12 44.52 43.82 43.87 43.88 44.78 45.44 48.00 49.80 49.81 50.30 46.71 48.47 42.25 42.55 45.87 49.19 48.96 48.87 50.45 50.07 42.23 43.72 40.85 40.78 48.34 49.56 48.35 49.26 49.38 47.22 46.95 48.05 47.22 49.62 47.14 49.00 47.35 44.45 44.41
43.90 45.05 44.95 45.36 44.98 46.64 47.13 46.10 47.04 50.15 50.85 49.60 49.82 50.74 50.62 47.63 48.25 40.68 41.09 50.44 49.45 48.45 48.17 48.07 48.27 41.16 40.56 40.61 42.48 47.49 46.06 47.68 46.95 46.47 47.14 47.38 47.37 47.69 47.22 48.62 48.19 46.66 44.25
46.29 45.15 47.06 48.64 49.51 48.61 48.96 49.90 50.29 50.47 49.74 49.65 49.56 49.30 50.17 50.78 40.43 40.96 40.90 41.84 44.91 47.97 46.95 47.33 46.96 40.39 40.27 40.55 45.14 40.28 41.41 44.21 48.02 47.52 45.77 44.07 44.96 45.80 46.92 47.93 48.79 48.90 48.88
46.93 47.55 47.07 47.76 48.96 49.98 49.70 49.39 48.45 49.50 48.01 47.88 47.28 46.93 47.05 48.56 49.00 40.84 40.33 41.55 42.30 47.45 47.54 43.97 41.76 41.08 41.47 42.55 41.42 41.63 42.52 47.56 45.36 44.39 43.57 44.76 45.85 46.78 48.05 48.16 48.93 49.81 48.27
47.26 48.14 49.10 48.23 48.82 48.88 48.07 48.12 46.65 46.52 47.13 46.56 46.32 46.55 46.51 46.26 46.14 46.80 47.69 49.09 44.46 47.61 45.90 48.20 45.01 43.47 41.98 44.49 46.63 46.47 46.93 46.74 45.06 43.73 44.16 45.65 46.81 46.46 46.41 46.17 45.79 44.95 43.18
47.88 47.87 47.91 48.10 48.34 47.57 44.89 43.72 45.75 43.01 40.88 44.28 45.27 45.51 45.05 44.28 42.19 38.44 40.42 45.97 46.73 44.99 45.40 48.24 47.22 46.91 46.50 46.76 46.96 47.05 47.15 46.91 43.71 44.59 43.86 43.92 44.31 45.53 44.72 43.80 43.31 44.05 40.24
47.28 46.65 46.19 47.04 47.27 47.53 47.48 45.37 36.58 37.26 36.71 35.81 35.83 38.28 44.06 36.98 37.00 36.76 36.55 36.57 37.39 37.34 45.80 45.04 44.61 44.71 44.17 44.38 44.64 44.96 45.76 44.76 45.40 43.67 43.71 43.20 43.16 42.86 42.88 42.33 42.04 41.98 40.34
46.78 47.44 47.20 46.21 46.95 46.95 47.04 46.63 46.15 40.54 37.13 36.49 35.70 35.69 35.55 34.66 36.16 36.40 36.89 36.78 38.01 40.13 45.02 44.58 43.84 43.95 43.81 44.18 44.06 44.07 43.80 44.36 45.81 44.37 42.73 43.10 41.53 41.93 41.00 40.85 40.61 40.84 40.25
48.49 39.81 47.70 47.36 47.30 47.37 47.19 47.05 47.26 46.32 45.62 45.68 37.41 37.99 35.99 35.98 36.24 36.68 37.19 40.90 45.77 45.18 45.60 44.77 44.34 44.65 44.13 43.84 43.81 43.98 44.47 44.29 44.76 43.55 42.85 41.76 40.74 40.55 40.19 39.42 40.39 40.10 39.71
47.51 47.38 48.28 48.04 47.24 46.04 47.66 47.31 46.59 46.02 45.35 44.75 45.80 42.74 41.20 36.88 36.77 37.20 38.92 46.03 45.26 45.15 45.59 45.36 45.50 45.16 44.74 44.35 43.88 44.29 44.72 43.79 43.91 42.83 41.48 40.68 40.33 40.05 39.55 40.34 40.69 37.34 37.54
48.90 40.54 43.24 48.20 47.81 47.56 47.31 46.94 46.32 45.79 45.42 44.93 44.19 43.68 45.53 45.43 45.54 45.73 46.16 46.00 45.75 45.38 45.33 45.02 45.14 45.31 44.76 43.73 43.50 44.01 44.18 43.68 43.37 42.54 41.28 40.52 40.56 40.59 39.75 39.52 39.71 39.28 39.54
50.87 48.38 41.03 48.95 47.64 47.41 47.60 47.08 46.97 46.65 46.08 45.80 44.86 42.24 31.00 44.47 45.52 45.88 46.02 45.98 45.77 45.34 45.12 44.86 44.18 43.37 43.44 43.47 43.30 43.61 43.64 43.23 43.11 41.50 40.93 40.35 40.04 39.16 39.84 39.94 39.65 39.83 39.18
50.85 48.85 48.54 47.97 48.07 46.97 47.61 48.05 47.41 46.97 46.54 46.08 46.24 44.51 34.06 47.30 46.49 46.46 46.45 46.56 46.68 46.88 46.84 45.96 44.29 43.83 43.70 43.38 43.32 43.48 43.14 41.96 42.85 40.56 39.76 39.94 39.62 39.70 39.78 40.04 39.73 39.68 38.65
50.75 49.69 49.69 49.72 48.79 42.64 48.65 47.93 47.48 47.39 46.88 46.60 46.28 46.13 46.52 46.72 46.67 46.41 46.41 46.77 46.86 46.74 47.02 46.49 45.15 43.95 44.30 44.36 44.33 44.12 42.36 41.09 41.40 40.52 38.79 39.19 39.25 39.22 39.47 39.27 39.37 38.75 37.57
51.23 50.53 48.60 48.81 47.94 49.19 48.66 48.54 47.96 41.29 46.24 46.93 46.60 46.44 46.99 47.09 46.95 46.78 46.74 46.76 46.88 46.84 46.77 46.65 46.05 44.36 44.09 43.58 43.68 43.75 42.23 40.01 41.91 40.33 40.72 40.30 39.45 38.81 39.24 39.44 39.22 39.08 38.23
49.99 50.01 50.30 50.16 49.83 48.89 49.81 48.98 48.47 48.32 47.96 47.39 46.95 46.87 47.26 47.52 47.18 46.93 47.02 46.84 46.81 46.47 46.35 46.39 46.31 45.49 43.99 42.94 42.20 41.87 35.11 31.23 36.99 32.89 39.84 40.60 39.58 39.66 39.16 39.45 39.78 39.84 39.14
51.09 50.73 50.28 50.41 50.15 49.65 48.75 48.39 48.31 48.29 47.95 48.13 47.90 47.79 47.34 47.10 47.38 47.26 47.08 46.65 46.40 46.28 45.98 46.16 46.28 45.88 43.83 42.37 40.01 33.45 31.30 31.61 35.62 32.10 38.36 40.22 38.87 39.55 38.72 39.55 40.04 40.09 39.81
MSLP
1022.13 1022.11 1021.79 1021.49 1021.19 1020.80 1020.37 1019.94 1019.47 1018.96 1018.30 1017.62 1016.68 1015.92 1015.08 1014.44 1014.03 1013.81 1013.60 1013.63 1013.86 1013.93 1014.04 1014.12 1014.19 1014.63 1014.83 1014.55 1013.99 1013.54 1013.05 1012.65 1011.93 1011.74 1012.09 1012.06 1011.85 1011.90 1011.78 1011.54 1011.27 1010.97 1011.01
1022.73 1022.46 1022.15 1021.72 1021.15 1020.63 1020.14 1019.62 1019.15 1018.59 1017.89 1017.20 1016.57 1015.85 1014.74 1014.11 1013.67 1013.43 1013.26 1013.00 1013.11 1013.42 1013.80 1014.21 1014.25 1013.94 1013.82 1013.65 1013.23 1013.05 1012.77 1012.78 1012.58 1012.22 1012.16 1012.08 1011.95 1011.78 1011.71 1011.46 1011.01 1010.82 1010.62
1023.04 1022.76 1022.22 1021.82 1021.17 1020.60 1019.87 1019.35 1018.89 1018.13 1017.43 1017.11 1016.82 1015.67 1015.38 1013.96 1013.44 1013.14 1013.54 1013.45 1013.60 1013.75 1013.80 1013.56 1013.23 1013.22 1013.11 1013.66 1013.48 1012.96 1012.99 1013.05 1012.93 1012.62 1012.27 1012.23 1011.70 1011.58 1011.14 1010.90 1010.79 1010.49 1010.20
1022.98 1022.54 1021.74 1021.38 1020.93 1020.28 1019.70 1019.16 1018.59 1018.04 1017.38 1017.05 1016.84 1016.48 1015.96 1014.99 1014.43 1014.27 1014.00 1013.79 1013.73 1013.60 1013.58 1013.28 1013.15 1013.87 1013.94 1013.76 1013.66 1013.94 1013.73 1013.24 1012.82 1012.62 1011.96 1011.70 1011.44 1010.97 1010.74 1010.49 1010.06 1009.88 1009.54
1022.66 1022.28 1021.83 1021.44 1021.07 1020.50 1019.89 1019.29 1018.70 1018.08 1017.64 1017.33 1016.86 1016.40 1015.89 1015.25 1015.11 1015.05 1014.33 1013.78 1013.48 1013.28 1013.18 1014.07 1014.39 1014.48 1014.67 1014.56 1014.37 1014.12 1013.72 1013.01 1012.65 1012.28 1012.21 1011.68 1011.21 1010.73 1010.61 1010.22 1010.11 1009.73 1009.18
1023.23 1022.62 1022.02 1021.35 1020.78 1020.27 1019.92 1019.44 1018.74 1018.27 1017.93 1017.36 1017.09 1016.79 1016.25 1015.56 1015.80 1015.56 1015.23 1014.04 1013.76 1013.92 1014.60 1014.87 1015.03 1015.03 1014.72 1014.55 1014.41 1014.13 1013.78 1013.09 1012.69 1012.09 1011.67 1011.36 1011.23 1010.96 1010.66 1010.36 1010.41 1009.48 1009.06
1023.46 1022.87 1022.27 1021.68 1021.12 1020.86 1020.54 1019.98 1019.58 1018.68 1018.35 1018.27 1017.91 1017.41 1016.92 1016.47 1016.04 1015.55 1015.30 1014.85 1015.17 1015.36 1015.46 1015.51 1015.40 1015.06 1014.60 1014.23 1014.14 1013.87 1013.58 1013.35 1013.17 1012.74 1012.09 1011.88 1011.64 1011.71 1011.21 1010.71 1010.11 1009.69 1009.15
1023.66 1023.20 1022.57 1022.08 1021.68 1021.30 1020.92 1020.55 1020.16 1019.69 1019.30 1018.92 1018.45 1017.91 1017.48 1017.20 1016.58 1016.15 1015.93 1015.89 1015.93 1015.77 1015.68 1015.58 1015.40 1014.97 1014.74 1014.85 1014.47 1013.73 1013.26 1012.98 1012.67 1012.53 1012.45 1012.29 1011.98 1011.90 1011.41 1011.07 1010.47 1009.95 1009.42
1023.89 1023.46 1023.02 1022.55 1022.16 1021.79 1021.44 1021.06 1020.61 1020.17 1019.83 1019.38 1018.86 1018.39 1018.10 1017.83 1017.40 1017.12 1016.50 1016.16 1015.89 1015.71 1015.54 1015.42 1015.41 1014.84 1015.17 1014.92 1014.25 1013.39 1012.74 1012.37 1012.54 1012.81 1012.80 1012.65 1012.52 1012.21 1011.78 1011.08 1010.25 1009.81 1009.16
1024.10 1023.78 1023.38 1022.93 1022.56 1022.27 1021.96 1021.50 1021.01 1020.68 1019.92 1018.90 1018.54 1018.52 1018.56 1018.28 1018.22 1017.83 1017.16 1015.95 1015.53 1014.78 1014.87 1015.10 1015.94 1015.96 1015.53 1014.99 1013.99 1012.79 1012.22 1011.83 1012.28 1012.75 1012.69 1012.22 1011.96 1011.02 1011.49 1011.25 1010.75 1010.35 1009.51
1024.40 1023.92 1023.56 1023.18 1022.89 1022.26 1021.85 1021.46 1020.89 1020.07 1019.21 1018.75 1018.30 1018.30 1018.28 1018.55 1018.30 1018.20 1017.66 1016.13 1015.45 1015.05 1014.95 1015.02 1015.92 1016.23 1015.66 1014.95 1014.19 1013.68 1013.29 1013.03 1012.84 1012.92 1012.26 1011.82 1011.30 1011.02 1010.89 1011.02 1011.19 1010.85 1010.32
1024.19 1023.94 1023.22 1022.80 1022.25 1021.80 1021.26 1020.68 1020.27 1019.49 1019.00 1018.55 1018.14 1017.86 1018.05 1018.29 1018.66 1018.58 1018.21 1017.68 1016.95 1015.98 1016.06 1016.08 1016.17 1016.22 1015.84 1015.18 1014.53 1014.22 1013.75 1013.29 1012.64 1012.22 1011.99 1011.92 1011.43 1011.17 1011.04 1011.12 1011.14 1010.90 1010.72
1023.95 1023.47 1023.31 1022.83 1022.19 1021.72 1021.35 1020.81 1020.19 1019.80 1019.29 1018.93 1018.50 1018.29 1018.28 1018.31 1018.14 1018.43 1018.32 1018.05 1017.74 1016.96 1016.91 1016.82 1016.46 1015.98 1015.34 1014.94 1014.69 1014.05 1013.39 1012.77 1012.69 1012.44 1012.28 1011.94 1011.98 1011.87 1011.60 1011.02 1010.56 1010.36 1010.42
1023.55 1023.13 1022.79 1022.73 1022.29 1022.22 1021.86 1021.42 1021.45 1021.28 1020.65 1020.18 1019.76 1019.19 1019.16 1019.40 1019.59 1019.28 1018.23 1017.69 1017.70 1017.16 1016.86 1016.29 1016.10 1015.66 1015.21 1014.71 1014.11 1013.98 1013.93 1013.81 1013.60 1013.36 1013.01 1012.45 1012.15 1011.90 1011.90 1011.60 1010.98 1011.00 1010.93
1023.42 1023.16 1022.68 1022.57 1022.52 1022.60 1023.41 1023.71 1023.10 1023.90 1023.66 1022.47 1021.81 1021.11 1020.77 1020.85 1021.65 1021.62 1020.55 1019.38 1018.83 1018.15 1017.26 1016.31 1015.78 1015.30 1014.88 1014.48 1014.09 1013.81 1013.45 1013.29 1013.63 1013.67 1013.48 1012.94 1012.59 1012.19 1011.91 1012.31 1012.04 1011.47 1011.45
1023.51 1023.29 1023.47 1022.73 1022.50 1022.44 1022.81 1024.03 1024.97 1024.66 1024.28 1024.08 1023.77 1023.23 1022.49 1023.07 1022.71 1021.99 1021.14 1020.30 1019.44 1018.41 1017.27 1016.76 1016.32 1015.88 1015.44 1015.00 1014.55 1014.13 1013.77 1013.70 1013.31 1013.66 1013.59 1013.59 1013.19 1012.95 1012.70 1012.51 1012.37 1011.90 1011.59
1024.13 1023.83 1023.10 1022.92 1022.70 1022.52 1022.54 1022.71 1023.31 1024.60 1024.25 1024.21 1024.28 1023.97 1023.73 1023.41 1022.73 1022.13 1021.28 1020.53 1019.74 1018.42 1017.76 1017.26 1016.85 1016.44 1016.02 1015.57 1015.12 1014.69 1014.26 1014.23 1013.89 1013.53 1013.93 1013.89 1014.03 1013.63 1013.32 1012.92 1012.60 1012.20 1011.79
1024.11 1024.35 1023.30 1023.16 1022.93 1022.61 1022.60 1022.55 1022.56 1022.75 1022.99 1023.17 1024.04 1023.91 1023.76 1023.37 1022.77 1022.16 1021.11 1019.92 1019.17 1018.68 1018.15 1017.81 1017.40 1017.01 1016.60 1016.11 1015.60 1015.07 1014.71 1014.52 1014.16 1014.43 1014.51 1014.67 1014.50 1014.04 1013.56 1013.24 1012.87 1012.43 1012.14
1024.04 1023.90 1023.55 1023.40 1023.37 1023.25 1022.67 1022.37 1022.35 1022.52 1022.57 1022.62 1022.62 1023.00 1023.05 1022.88 1022.38 1021.89 1021.17 1020.21 1019.60 1019.15 1018.78 1018.30 1018.05 1017.65 1017.14 1016.65 1016.14 1015.60 1015.25 1014.96 1014.71 1014.87 1015.19 1015.17 1014.82 1014.33 1013.82 1013.37 1012.95 1012.71 1012.42
1024.23 1024.70 1024.26 1023.29 1023.02 1022.83 1022.70 1022.46 1022.42 1022.51 1022.57 1022.76 1023.02 1023.24 1022.89 1022.01 1021.78 1021.39 1021.07 1020.70 1020.17 1019.83 1019.58 1019.01 1018.59 1018.18 1017.71 1017.32 1016.81 1016.27 1015.76 1015.30 1015.20 1015.44 1015.57 1015.42 1014.99 1014.47 1013.97 1013.52 1013.08 1012.74 1012.46
1023.85 1023.92 1024.17 1023.24 1023.14 1023.01 1022.89 1022.78 1022.67 1022.55 1022.55 1022.74 1023.11 1023.88 1023.70 1022.61 1021.93 1021.65 1021.38 1021.07 1020.77 1020.46 1020.25 1019.72 1019.09 1018.74 1018.34 1017.97 1017.57 1016.98 1016.46 1015.98 1015.69 1016.13 1015.94 1015.56 1015.12 1014.57 1014.07 1013.56 1013.22 1012.89 1012.80
1023.66 1023.64 1023.51 1023.29 1023.23 1023.24 1023.14 1022.93 1022.75 1022.65 1022.63 1022.56 1022.61 1023.06 1023.12 1022.40 1022.15 1021.99 1021.85 1021.60 1021.28 1020.99 1020.73 1020.37 1019.79 1019.45 1019.15 1018.69 1018.25 1017.51 1017.16 1016.80 1016.35 1016.70 1016.32 1015.78 1015.26 1014.71 1014.16 1013.64 1013.32 1013.12 1013.09
1023.55 1023.57 1023.34 1023.22 1023.28 1023.79 1023.09 1022.94 1022.80 1022.70 1022.66 1022.70 1022.70 1022.70 1022.66 1022.58 1022.49 1022.35 1022.21 1022.02 1021.72 1021.50 1021.20 1020.94 1020.56 1020.18 1020.00 1019.42 1018.92 1018.23 1018.12 1017.85 1017.32 1017.01 1016.67 1016.03 1015.40 1014.91 1014.34 1013.87 1013.57 1013.45 1013.47
1023.30 1023.43 1023.33 1023.17 1023.17 1023.05 1023.16 1023.04 1022.91 1023.47 1022.97 1022.67 1022.81 1022.86 1022.83 1022.79 1022.68 1022.64 1022.45 1022.28 1022.08 1021.84 1021.68 1021.42 1021.20 1021.00 1020.69 1020.25 1019.78 1019.26 1019.20 1019.19 1018.11 1017.39 1016.72 1016.18 1015.61 1015.04 1014.55 1014.09 1013.84 1013.75 1013.80
1023.10 1023.27 1023.19 1023.16 1023.21 1023.19 1023.35 1023.02 1022.81 1022.84 1022.80 1022.86 1022.87 1022.84 1022.81 1022.81 1022.74 1022.73 1022.60 1022.42 1022.25 1022.16 1021.99 1021.85 1021.74 1021.48 1021.12 1020.97 1020.85 1020.43 1020.37 1019.72 1018.71 1018.07 1017.00 1016.43 1015.91 1015.31 1014.82 1014.40 1014.10 1013.96 1014.04
1023.17 1023.35 1023.27 1023.16 1023.08 1023.06 1022.99 1022.91 1022.82 1022.81 1022.76 1022.85 1022.91 1022.94 1022.92 1022.82 1022.81 1022.76 1022.66 1022.70 1022.45 1022.30 1022.30 1022.14 1022.03 1021.84 1021.76 1021.50 1021.58 1021.34 1020.72 1019.82 1018.75 1017.99 1017.32 1016.73 1016.23 1015.65 1015.18 1014.74 1014.45 1014.24 1014.32
Wind_Speed
16 15 14 13 13 12 11 11 12 13 13 14 15 15 15 14 13 12 11 8 6 6 6 5 4 3 5 8 8 10 9 10 9 7 2 3 6 4 4 5 5 5 4
13 15 14 14 13 13 12 12 12 11 12 12 11 14 14 13 12 12 12 11 8 6 4 4 8 8 11 10 7 8 9 7 5 6 4 2 4 3 4 6 4 2 4
13 13 12 11 12 12 12 12 12 11 10 9 12 11 15 12 10 7 4 3 3 4 6 8 11 10 10 6 7 8 7 6 5 3 2 3 3 2 4 5 5 4 6
11 12 10 10 11 11 11 11 11 11 10 10 9 10 11 10 7 8 7 7 7 7 8 10 9 8 4 6 5 5 5 4 2 4 3 4 3 2 5 5 5 4 5
11 10 10 9 11 10 11 10 10 9 8 8 9 9 8 7 7 10 8 7 6 8 8 11 7 9 9 7 4 4 6 4 4 4 5 5 3 4 6 5 5 5 4
12 12 12 11 10 9 8 10 11 8 9 9 11 11 11 9 14 12 9 8 6 9 9 8 7 6 2 3 3 5 8 9 5 4 2 4 5 5 5 6 5 6 6
10 11 10 8 10 11 11 11 11 12 12 11 11 11 11 10 12 9 4 9 10 10 7 4 3 2 6 6 2 7 6 4 5 7 6 7 8 7 8 9 7 7 5
10 11 12 12 10 11 11 11 10 9 9 8 10 10 10 11 16 17 15 9 7 7 5 4 4 5 6 8 8 8 5 7 4 5 7 6 8 10 10 9 10 9 3
10 10 10 10 10 10 10 9 7 6 8 8 9 13 11 10 13 12 9 9 8 7 4 5 9 10 14 11 10 11 10 7 3 2 8 8 7 8 8 8 6 6 6
9 9 8 8 9 8 8 7 5 6 8 7 11 10 8 9 13 12 13 5 6 5 7 8 14 11 11 10 10 8 8 5 1 5 6 6 9 6 6 4 7 4 6
7 8 8 8 7 5 6 1 3 5 7 7 9 9 10 10 8 10 13 9 9 8 9 9 10 10 11 11 10 10 9 8 7 4 6 6 7 8 6 6 4 6 7
6 6 6 7 6 7 8 8 9 9 9 9 10 9 8 10 11 10 9 11 14 9 10 9 8 7 5 10 9 9 3 3 4 5 7 7 7 7 8 6 4 5 4
7 10 8 6 8 8 9 9 8 8 9 9 9 9 9 9 6 7 7 6 8 7 7 5 8 7 8 2 1 8 9 11 10 7 6 8 8 7 7 7 5 9 4
8 8 8 9 9 11 9 9 11 10 9 9 9 9 9 10 11 12 10 5 1 3 3 4 3 6 3 4 7 9 10 8 8 9 9 8 7 8 7 8 8 7 7
8 8 7 8 8 9 11 10 9 10 9 10 10 9 10 9 9 9 10 9 9 9 12 7 8 8 9 9 9 9 8 7 7 8 9 8 8 7 6 5 7 6 4
8 7 6 6 6 6 7 7 8 6 10 13 13 13 7 8 8 8 10 9 13 16 6 8 9 9 10 11 10 10 10 11 10 7 7 9 9 9 8 6 6 5 5
8 6 5 5 6 6 5 5 4 4 9 9 8 11 10 8 9 10 10 9 8 11 9 9 10 10 10 10 11 11 11 11 13 9 8 8 8 8 8 7 7 6 6
6 4 4 5 5 5 5 5 5 5 5 5 8 7 6 6 8 11 15 7 7 9 9 10 10 10 10 11 11 11 10 11 11 11 10 10 8 7 7 6 6 8 7
6 6 4 4 5 4 5 5 6 6 6 6 6 4 4 5 4 2 9 9 9 10 10 10 10 10 10 11 11 11 12 11 10 9 9 9 7 7 7 7 6 7 6
4 2 5 4 5 5 5 5 6 5 6 7 8 9 9 5 8 8 9 9 9 9 10 10 10 10 10 11 11 11 12 12 11 10 9 7 8 8 6 8 7 6 5
1 4 3 3 5 5 5 5 5 5 5 5 6 7 7 8 7 7 8 9 9 10 10 10 10 11 10 10 11 11 12 12 11 11 9 7 7 7 7 6 6 5 4
1 3 3 4 4 5 5 4 5 5 5 6 5 5 8 4 6 7 8 8 9 9 9 10 10 10 11 11 11 11 13 13 12 10 9 9 8 7 7 6 5 4 4
0 1 2 2 3 2 1 4 4 4 5 5 6 6 6 6 6 7 7 7 8 9 9 10 11 11 11 11 11 12 13 14 12 8 8 9 8 8 6 6 5 4 4
0 2 3 3 4 2 3 3 3 2 4 5 5 5 5 5 5 6 6 6 7 8 9 10 10 14 12 12 12 13 13 11 11 11 11 8 8 8 6 5 4 4 3
3 2 1 1 1 3 1 2 3 3 4 4 4 4 4 4 4 5 5 6 6 8 9 9 10 14 15 17 18 19 15 14 13 10 7 10 10 10 8 5 5 4 4
1 2 2 2 2 3 3 3 3 4 4 3 4 4 4 4 4 4 5 6 6 7 8 8 11 16 18 14 17 14 13 14 15 14 7 9 9 8 7 7 8 4 5
Wind_Direction
344 340 330 329 325 320 317 314 308 306 302 296 299 297 292 290 280 284 278 260 250 249 246 256 274 284 259 257 261 259 263 282 292 307 252 238 289 290 291 289 277 277 232
339 333 330 324 325 323 320 322 312 297 287 301 328 319 292 286 287 270 282 290 292 311 262 247 252 240 256 271 297 319 327 322 294 309 313 344 271 328 298 275 277 292 292
338 325 320 319 314 319 322 324 325 317 326 336 326 326 345 313 298 292 321 334 311 270 265 279 303 313 326 4 324 318 334 333 312 288 309 255 294 297 272 250 248 267 251
335 327 333 333 329 322 325 325 331 327 336 346 340 334 333 327 23 9 346 339 332 321 295 279 346 48 8 355 350 351 309 289 281 265 274 255 261 290 302 306 302 257 298
344 344 339 349 332 337 341 343 336 339 343 336 338 337 331 320 17 342 317 287 284 292 352 74 63 63 48 28 349 331 295 303 310 344 342 336 328 345 335 315 325 313 329
348 342 337 336 333 341 332 341 332 352 341 356 359 350 349 342 355 328 300 315 333 15 68 64 60 49 352 352 322 312 349 352 346 348 284 24 12 346 336 344 311 334 335
348 346 351 343 352 5 356 2 359 2 12 14 5 6 4 356 340 340 6 48 71 71 73 70 52 15 352 12 311 262 254 278 313 323 345 7 356 334 312 315 322 310 332
0 1 2 5 11 8 16 18 15 17 22 18 14 15 29 50 55 61 69 72 81 85 80 63 15 335 18 336 327 308 318 308 301 321 345 348 350 342 335 331 316 295 275
359 2 3 16 21 21 22 14 8 20 26 25 31 39 53 54 29 44 60 66 67 71 78 51 355 343 9 342 297 286 300 294 200 287 306 302 287 274 279 313 331 345 317
4 4 8 20 26 30 25 12 355 17 38 63 71 72 81 61 26 9 350 30 53 36 65 77 62 10 340 328 317 321 309 336 351 40 330 257 246 288 222 356 344 322 324
4 16 27 27 41 66 78 17 349 26 50 52 66 65 63 27 44 11 347 2 6 24 29 33 38 349 338 346 335 17 352 343 77 358 281 314 338 6 357 16 328 327 334
30 47 57 69 44 35 40 47 36 15 40 55 50 53 63 58 23 44 12 16 353 34 26 26 38 338 345 31 23 8 36 303 316 309 356 1 340 349 350 4 347 329 300
79 67 59 46 35 33 35 20 39 40 35 39 42 49 44 29 64 125 86 55 29 40 35 1 292 298 271 173 35 292 299 7 13 359 350 355 0 2 357 336 334 3 11
81 61 52 54 36 36 31 32 36 18 25 36 29 30 44 42 23 5 9 25 222 304 205 49 337 275 263 349 24 30 24 15 3 1 350 347 352 4 1 1 342 0 343
61 55 46 66 52 76 60 24 37 44 19 9 8 36 11 35 27 344 360 11 1 352 316 19 16 17 15 13 13 12 19 11 34 4 353 351 350 353 352 356 332 345 330
54 53 28 49 60 57 82 84 63 69 64 47 32 27 77 40 331 331 337 342 356 327 16 19 19 15 12 10 7 4 6 8 354 25 5 351 349 351 345 349 337 333 329
41 19 59 41 46 40 40 49 76 115 86 88 69 47 37 7 358 347 329 300 3 337 29 22 19 14 9 8 4 5 2 8 343 32 353 8 347 340 340 341 337 333 334
34 199 38 33 34 33 32 26 24 29 33 90 89 58 42 1 5 354 333 330 29 28 24 18 13 9 6 2 359 3 357 3 353 18 3 0 339 333 334 336 327 337 345
20 39 30 51 41 4 22 29 36 40 36 39 43 148 141 215 246 300 330 23 21 20 13 13 9 4 2 359 358 360 357 1 5 5 7 347 335 331 331 329 324 328 321
98 62 287 30 38 37 36 32 40 43 42 41 38 15 358 9 28 24 29 22 19 21 12 3 7 2 2 2 358 359 358 360 11 5 358 340 333 327 329 330 333 333 351
65 99 304 19 40 31 36 34 36 35 46 46 64 35 302 326 28 29 27 25 22 18 14 3 8 6 4 3 0 359 359 358 7 3 342 335 333 329 329 326 328 344 12
73 37 22 26 25 39 11 31 29 35 32 31 41 89 267 22 32 33 30 25 21 21 18 10 10 13 7 2 1 357 2 358 360 358 340 336 333 336 333 340 346 18 38
52 342 323 19 57 217 188 34 27 34 36 34 29 30 31 35 34 29 28 22 21 20 18 18 15 15 12 5 6 4 7 357 344 355 333 333 333 344 337 344 352 41 52
172 315 321 349 33 359 27 36 105 138 345 31 34 30 29 29 28 34 21 20 17 22 19 23 20 19 15 10 9 3 13 357 338 349 334 331 340 343 344 350 3 71 75
16 27 354 3 348 13 155 358 21 14 21 21 20 17 26 19 24 23 19 15 22 20 26 19 19 19 18 18 13 6 357 331 326 327 332 351 348 353 351 356 13 60 86
110 61 354 335 354 343 345 343 354 356 5 14 5 11 5 3 15 16 13 20 13 28 20 25 22 27 18 21 10 353 341 334 334 334 339 5 359 3 358 10 31 44 100